Location: Melbourne
(37.8666°S, 145.1333°E)
Time: 22:18:04
(UTC+10:00)

Iridium 21 - Visible Passes

Search period start: 29 May 2015 00:00
Search period end: 08 June 2015 00:00
Orbit: 776 x 779 km, 86.4° (Epoch: 28 May)

Date Brightness Start Highest point End Pass type
(mag) Time Alt. Az. Time Alt. Az. Time Alt. Az.
29 May 8.2 06:49:14 10° NE 06:53:05 22° E 06:57:07 10° SSE visible
29 May 6.2 19:00:10 10° S 19:06:54 37° NE 19:10:24 10° NNE visible
29 May 8.2 20:47:07 15° W 20:47:07 15° W 20:48:50 10° WNW visible
30 May 8.6 06:18:25 10° E 06:19:49 11° E 06:21:35 10° ESE visible
30 May 6.4 18:27:11 10° SSE 18:31:34 27° ESE 18:36:01 10° NE visible
30 May 7.2 20:07:40 10° SSW 20:12:21 31° W 20:16:52 10° NW visible
31 May 7.0 17:54:56 10° SE 17:57:40 15° ESE 18:00:40 10° ENE visible
31 May 6.0 19:33:44 10° S 19:38:57 59° W 19:44:05 10° NNW visible
01 Jun 7.6 06:48:32 10° NE 06:53:04 31° E 06:57:44 10° SSE visible
01 Jun 5.4 19:00:09 10° S 19:05:27 74° E 19:10:42 10° N visible
01 Jun 8.5 20:43:47 10° WSW 20:45:35 11° WSW 20:47:01 10° W visible
02 Jun 8.3 06:16:35 10° ENE 06:19:46 17° E 06:23:12 10° SE visible
02 Jun 5.9 18:26:55 10° SSE 18:31:49 39° E 18:36:44 10° NNE visible
02 Jun 7.8 20:08:17 10° SSW 20:12:20 22° W 20:16:10 10° NW visible
03 Jun 6.7 17:54:08 10° SSE 17:58:01 21° ESE 18:02:03 10° NE visible
03 Jun 6.8 19:34:03 10° SSW 19:38:59 40° W 19:43:49 10° NNW visible
04 Jun 6.8 06:48:07 10° NNE 06:53:05 46° E 06:58:09 10° SSE visible
04 Jun 5.6 19:00:15 10° S 19:05:33 76° W 19:10:47 10° N visible
05 Jun 7.9 06:15:36 10° NE 06:19:44 25° E 06:24:01 10° SSE visible
05 Jun 5.6 18:26:48 10° S 18:32:00 57° E 18:37:10 10° NNE visible
05 Jun 8.3 20:09:16 10° SW 20:12:16 15° W 20:15:01 10° WNW visible
06 Jun 8.5 05:44:14 10° ENE 05:46:27 13° E 05:48:59 10° SE visible
06 Jun 6.3 17:53:43 10° SSE 17:58:19 30° E 18:02:57 10° NE visible
06 Jun 7.5 19:34:31 10° SSW 19:38:59 28° W 19:43:19 10° NW visible
07 Jun 6.0 06:47:56 10° N 06:53:08 68° E 06:58:25 10° S visible
07 Jun 6.3 19:00:29 10° SSW 19:05:36 52° W 19:10:40 10° NNW visible
